CHINASAT 12 (ZX 12) (39017 NORAD) Tracking and Keplerian Element Data

This shows tracking and keplerian element data for the satellite.

Feedback or suggestion? Click here.




ElementValue
Catalog39017
NameCHINASAT 12 (ZX 12)
Epoch Orbit2364
Epoch Day145.90049275
Epoch Year2019
RAAN348.0997
Inclination0.0166
Eccentricity0.0003261
Argument of Perigee77.4728
Mean Anonmoly229.2864
Mean Motion1.00273665
Decay Rate-2.11E-06
L11 39017U 12067A 19145.90049275 -.00000211 00000-0 00000-0 0 9997
L22 39017 0.0166 348.0997 0003261 77.4728 229.2864 1.00273665 23640

Live tracking and technical data element details for CHINASAT 12 (ZX 12) (NORAD 39017). CHINASAT 12 (ZX 12) can be tracked NOW for your location showing map with azimuth and elevation plus other details from your city location.

Track the satellite on the map from your city or location and see movement details for azimuth, elevation, latitude, longitude, range, height, and movement on the map or in text.







IsCatalogInMostPopularTable: catalog: 39017, numindb: 180
Update: records affected: 1



GetName: 39017 CHINASAT 12 (ZX 12)

Hit Count: updated at: Mon, 27 May 2019 02:58:22 GMT